Regional Weather Roundup
Issued by NWS Portland, ME

Current Version | Previous Version | Text Only | Print | Product List | Glossary Off
Versions: 1 2 3 4 5 6 7 8 9 10 11 12 13 14 15 16 17 18 19 20 21 22 23 24 25 26 27 28 29 30 31 32 33 34 35 36 37 38 39 40 41 42 43 44 45 46 47 48 49 50
000 ASUS41 KGYX 200305 RWRGYX WEATHER ROUNDUP FOR MAINE AND NEW HAMPSHIRE NATIONAL WEATHER SERVICE GRAY ME 1000 PM EST SAT JAN 19 2019 MEZ002-005-006-010-012-015-018-020-021-024-026-027-029-200400- MAINE CITY SKY/WX TMP DP RH WIND PRES REMARKS PORTLAND LGT SNOW 14 9 80 N14G25 30.29F WCI -1 SANFORD LGT SNOW 14 10 84 NE10 30.25F FOG WCI 1 BAR HARBOR LGT SNOW 6 2 83 NE10 30.38R VSB 1 WCI -9 WISCASSET LGT SNOW 12 9 87 VRB5 30.33F FOG ROCKLAND LGT SNOW 14 10 84 NE13 30.32F FOG WCI 0 FRYEBURG LGT SNOW 11 8 88 E5 30.28F FOG LEWISTONAUBURN LGT SNOW 10 6 84 NE9 30.30F FOG AUGUSTA LGT SNOW 8 4 83 NE9 30.32F FOG WATERVILLE LGT SNOW 7 3 84 MISG 30.30F FOG BANGOR LGT SNOW 6 1 80 NE7 30.37F GREENVILLE N/A 0 -7 72 SE6 30.20S MILLINOCKET LGT SNOW -1 -7 75 NE7 30.38F HOULTON LGT SNOW -5 -13 68 N9 30.37F PRESQUE ISLE CLOUDY -7 -18 59 N6 30.41R FRENCHVILLE CLOUDY -11 -22 58 N5 30.33F CARIBOU CLOUDY -8 -20 55 NE8 30.38S $$ NHZ002-005-008-009-011-012-014-200400- NEW HAMPSHIRE CITY SKY/WX TMP DP RH WIND PRES REMARKS PORTSMOUTH LGT SNOW 24 21 88 NE9 30.21F FOG ROCHESTER LGT SNOW 15 12 88 N8 30.23F FOG NASHUA LGT SNOW 25 23 92 E6 30.17F FOG MANCHESTER LGT SNOW 24 19 81 NE9 30.17F CONCORD LGT SNOW 18 14 84 NE7 30.20F FOG LACONIA LGT SNOW 14 11 87 NE9 30.22F FOG PLYMOUTH LGT SNOW 15 11 85 E3 30.21S BERLIN LGT SNOW 9 5 84 N5 30.16F FOG WHITEFIELD CLOUDY 13 6 74 E8 30.12F JAFFREY LGT SNOW 22 19 89 VRB6 30.08F FOG KEENE LGT SNOW 25 20 81 VRB6 30.11 LEBANON LGT SNOW 12 6 77 N6 30.16F MT WASHINGTON SNOW 3 3 100 SW29G41 N/A VSB 3/16WCI -21 $$ VTZ005-007-008-200400- VERMONT CITY SKY/WX TMP DP RH WIND PRES REMARKS ST JOHNSBURY N/A 7 3 84 MISG 30.16F MONTPELIER LGT SNOW 6 4 91 CALM 30.16F FOG BURLINGTON LGT SNOW -6 -12 75 N8 30.21F VSB 1 $$ MAZ007-012-024-CTZ003-RIZ002-NYZ038-NYZ072-200400- SOUTHERN NEW ENGLAND AND NY CITY SKY/WX TMP DP RH WIND PRES REMARKS BOSTON LGT SNOW 31 27 85 E23 30.15F FOG WCI 18 WORCESTER LGT SNOW 23 22 96 NE7 30.06F VSB 1 NANTUCKET LGT RAIN 36 34 92 E13G24 30.10F FOG PROVIDENCE LGT SNOW 31 29 92 NE12 30.09F FOG HARTFORD LGT SNOW 27 27 100 NE6 30.10R VSB 3/4 ALBANY LGT SNOW 9 2 73 N7 30.11F VSB 1 NEW YORK CITY LGT SNOW 34 32 92 E10 29.94F FOG $$ ANZ081-ANZ082-ANZ150-NHZ014-MEZ023>029-200400- COASTAL MARINE OBSERVATIONS STATION/POSITION TIME TEMP WIND PRES WAVE AIR SEA DIR/SP/G HT/PER (UTC) (F) (DEG/KT/KT) (MB) (FT/S) MOUNT DESERT ROC 0200 16 20/ 21/ 24 1026.9F MATINICUS ROCK 0200 21 80/ 21/ 25 1025.7R ISLE OF SHOALS 0200 26 70/ 17/ 18 1023.7F JEFFREYS LEDGE 0238 44 N/A 4/ 5 CASHES LEDGE BUO 0250 26 40 1024.5F 4/ 5 $$ .............KEY.............. WCI - WIND CHILL TC - TEMPERATURE IN CELSIUS VSB - VISIBILITY IN MILES HX - HEAT INDEX FAIR- INDICATES FEW OR NO CLOUDS BELOW 12,000 FT, WITH NO SIGNIFICANT WEATHER AND/OR OBSTRUCTIONS TO VISIBILITY.

USA.gov is the U.S. government's official web portal to all federal, state and local government web resources and services.